Satellite-Ground Cal/Val Site Overpasses Predictions

Prediction of Satellite NPP Overpassing Cal/Val Site: Antarctic Dome C

Ground Cal/Val Site Location: Latitude: -75.10, Longitude: 123.35; Satellite-Ground Site NADIR distance within 100 km.

Table of predicted overpasses for the next 14.0 days since TLE Epoch: 12/22/2017
Interval Starting Time Ending Time Minimum Distance Time Minimum Distance (km)
1 12/23/2017 07:25:29 12/23/2017 07:25:57 12/23/2017 07:25:43 34.22
2 12/25/2017 15:07:56 12/25/2017 15:08:02 12/25/2017 15:07:59 97.02
3 12/26/2017 14:48:54 12/26/2017 14:49:23 12/26/2017 14:49:08 14.31
4 12/28/2017 07:31:43 12/28/2017 07:32:12 12/28/2017 07:31:58 3.48
5 12/31/2017 14:55:08 12/31/2017 14:55:37 12/31/2017 14:55:22 22.06
6 01/01/2018 14:36:26 01/01/2018 14:36:41 01/01/2018 14:36:33 85.10
7 01/02/2018 07:37:57 01/02/2018 07:38:24 01/02/2018 07:38:11 38.17
8 01/03/2018 07:19:11 01/03/2018 07:19:31 01/03/2018 07:19:21 71.84


NCC Satellite Cal/Val Overpasses Prediction Service
